Rodez, France

7:42 PM CEST on August 30, 2016 (GMT +0200)
Marcillac

Weather History for LFCR - December, 2012

Change the Weather History Date:

Monday, December 10, 2012

  Actual Average Record
Temperature  
Mean Temperature 30 °F -  
Max Temperature 33 °F - - ()
Min Temperature 28 °F - - ()
Degree Days  
Heating Degree Days 34    
Moisture  
Dew Point 30 °F    
Average Humidity 93    
Maximum Humidity 100    
Minimum Humidity 80    
Precipitation  
Precipitation 0.00 in - - ()
Sea Level Pressure  
Sea Level Pressure 30.12 in    
Wind  
Wind Speed 5 mph ()    
Max Wind Speed 14 mph    
Max Gust Speed -    
Visibility 3.5 miles    
Events Fog , Rain , Snow    
T = Trace of Precipitation, MM = Missing Value Source: Averaged Metar Reports

Daily Weather History Graph

Daily Weather History Graph

Search for Another Location

Airport or City:

Trip Planner

Search our weather history database for the weather conditions in past years. The results will help you decide how hot, cold, wet, or windy it might be!

Date:

Astronomy

Dec. 10, 2012 Rise Set
Actual Time 8:15 AM CET 5:10 PM CET
Civil Twilight 7:42 AM CET 5:43 PM CET
Nautical Twilight 7:05 AM CET 6:20 PM CET
Astronomical Twilight 6:30 AM CET 6:55 PM CET
Moon 4:35 AM CET (12/10) 2:52 PM CET (12/10)
Length of Visible Light 10h 01m
Length of Day
8h 55m
Waning Crescent, 12% of the Moon is Illuminated
Dec 10
Waning Crescent
Dec 13
New
Dec 20
First Quarter
Dec 28
Full
Jan 5
Last Quarter

Hourly Weather History & Observations

Time (CET) Temp. Windchill Dew Point Humidity Pressure Visibility Wind Dir Wind Speed Gust Speed Precip Events Conditions
12:00 AM 28.4 °F - 24.8 °F 86% 30.18 in 6.2 mi WSW 2.3 mph - N/A   Overcast
12:30 AM 28.4 °F - 26.6 °F 93% 30.18 in 5.6 mi SW 2.3 mph - N/A   Overcast
1:00 AM 30.2 °F - 26.6 °F 86% 30.18 in 6.2 mi Variable 2.3 mph - N/A   Overcast
1:30 AM 32.0 °F 27.5 °F 26.6 °F 80% 30.18 in 6.2 mi NW 4.6 mph - N/A   Overcast
2:00 AM 32.0 °F 25.6 °F 26.6 °F 80% 30.18 in 6.2 mi NW 6.9 mph - N/A   Overcast
2:30 AM 32.0 °F 26.4 °F 26.6 °F 80% 30.15 in 6.2 mi NW 5.8 mph - N/A   Overcast
3:00 AM 30.2 °F 25.4 °F 26.6 °F 86% 30.15 in 6.2 mi NW 4.6 mph - N/A   Overcast
3:30 AM 32.0 °F 26.4 °F 26.6 °F 80% 30.15 in 6.2 mi West 5.8 mph - N/A   Overcast
4:00 AM 32.0 °F - 26.6 °F 80% 30.15 in 6.2 mi West 2.3 mph - N/A   Overcast
4:30 AM 32.0 °F - 26.6 °F 80% 30.12 in 6.2 mi NW 2.3 mph - N/A   Overcast
5:00 AM 32.0 °F 28.7 °F 28.4 °F 87% 30.12 in 6.2 mi NW 3.5 mph - N/A   Overcast
5:30 AM 32.0 °F - 28.4 °F 87% 30.12 in 5.0 mi Calm Calm - N/A   Overcast
6:00 AM 32.0 °F 28.7 °F 28.4 °F 87% 30.12 in 4.3 mi WNW 3.5 mph - N/A   Light Freezing Drizzle
6:30 AM 32.0 °F 27.5 °F 28.4 °F 87% 30.12 in 5.0 mi NNW 4.6 mph - N/A   Overcast
7:00 AM 30.2 °F 26.7 °F 28.4 °F 93% 30.12 in 4.3 mi Variable 3.5 mph - N/A   Overcast
7:30 AM 32.0 °F 27.5 °F 28.4 °F 87% 30.12 in 4.3 mi WNW 4.6 mph - N/A   Overcast
8:00 AM 32.0 °F 27.5 °F 28.4 °F 87% 30.12 in 4.3 mi West 4.6 mph - N/A   Overcast
8:30 AM 32.0 °F 24.8 °F 28.4 °F 87% 30.12 in - NW 8.1 mph - N/A Snow Light Snow
9:00 AM 32.0 °F 24.8 °F 30.2 °F 93% 30.12 in 0.7 mi NW 8.1 mph - N/A Snow Light Snow
9:30 AM 32.0 °F 24.2 °F 30.2 °F 93% 30.12 in 1.1 mi WNW 9.2 mph - N/A Snow Light Snow
10:00 AM 32.0 °F 24.2 °F 30.2 °F 93% 30.12 in 1.6 mi WNW 9.2 mph - N/A Snow Light Snow
10:30 AM 32.0 °F 25.6 °F 30.2 °F 93% 30.12 in 1.1 mi WNW 6.9 mph - N/A Snow Light Snow
11:00 AM 32.0 °F 25.6 °F 32.0 °F 100% 30.12 in 1.4 mi WNW 6.9 mph - N/A Rain Rain
11:30 AM 32.0 °F 24.2 °F 32.0 °F 100% 30.12 in 1.3 mi NW 9.2 mph - N/A Rain Rain
12:00 PM 32.0 °F 24.2 °F 32.0 °F 100% 30.12 in 0.8 mi WNW 9.2 mph - N/A   Overcast
12:30 PM 33.8 °F 25.3 °F 32.0 °F 93% 30.09 in 1.3 mi West 11.5 mph - N/A   Overcast
1:00 PM 33.8 °F 24.3 °F 32.0 °F 93% 30.09 in 1.5 mi WNW 13.8 mph - N/A   Overcast
1:30 PM 33.8 °F 25.3 °F 33.8 °F 100% 30.09 in - WNW 11.5 mph - N/A Fog Fog
2:00 PM 33.8 °F 24.8 °F 33.8 °F 100% 30.06 in 0.2 mi WNW 12.7 mph - N/A Fog Fog
2:30 PM 32.0 °F 27.5 °F 32.0 °F 100% 30.06 in 0.1 mi NNW 4.6 mph - N/A Fog Fog
3:00 PM 32.0 °F 27.5 °F 32.0 °F 100% 30.06 in 0.1 mi NNW 4.6 mph - N/A Fog Fog
3:30 PM 32.0 °F 27.5 °F 32.0 °F 100% 30.09 in 0.1 mi NNW 4.6 mph - N/A Fog Fog
4:00 PM 33.8 °F 27.0 °F 33.8 °F 100% 30.09 in 0.1 mi NW 8.1 mph - N/A Fog Fog
4:30 PM 33.8 °F 25.3 °F 33.8 °F 100% 30.09 in 0.1 mi NW 11.5 mph - N/A Fog Fog
5:00 PM 33.8 °F 24.8 °F 33.8 °F 100% 30.09 in 0.4 mi NW 12.7 mph - N/A Fog Fog
5:30 PM 33.8 °F 24.8 °F 33.8 °F 100% 30.09 in 4.3 mi NW 12.7 mph - N/A   Unknown
6:00 PM 33.8 °F 24.8 °F 33.8 °F 100% 30.09 in 6.2 mi NW 12.7 mph - N/A   Overcast
6:30 PM 33.8 °F 26.4 °F 33.8 °F 100% 30.12 in 6.2 mi NNW 9.2 mph - N/A   Overcast
7:00 PM 33.8 °F 26.4 °F 32.0 °F 93% 30.12 in 6.2 mi NW 9.2 mph - N/A   Overcast
7:30 PM 32.0 °F 26.4 °F 32.0 °F 100% 30.12 in - NW 5.8 mph - N/A   Scattered Clouds
8:00 PM 32.0 °F 24.8 °F 32.0 °F 100% 30.12 in 1.6 mi NW 8.1 mph - N/A   Overcast
8:30 PM 30.2 °F 25.4 °F 28.4 °F 93% 30.12 in - NW 4.6 mph - N/A   Mostly Cloudy
9:00 PM 30.2 °F 26.7 °F 28.4 °F 93% 30.12 in - WNW 3.5 mph - N/A   Mostly Cloudy
9:30 PM 30.2 °F 25.4 °F 30.2 °F 100% 30.12 in - NW 4.6 mph - N/A   Overcast
10:00 PM 30.2 °F 23.4 °F 30.2 °F 100% 30.12 in - NW 6.9 mph - N/A   Overcast
10:30 PM 30.2 °F 25.4 °F 28.4 °F 93% 30.12 in - NW 4.6 mph - N/A   Overcast
11:00 PM 28.4 °F 24.6 °F 26.6 °F 93% 30.15 in - NW 3.5 mph - N/A   Overcast
11:30 PM 30.2 °F 24.3 °F 30.2 °F 100% 30.15 in - NW 5.8 mph - N/A   Overcast